This demonstration page uses our WeatherBlox Daily Observations layout. Learn more.

Left ArrowRight Arrow

41.12389, -100.76542

Hourly Observations for March 16, 2015

Temp ( °F °C ) Dew Point ( °F °C ) Humidity (%) Winds ( mph kmh ) Pressure ( in mb ) Visibility ( mi km ) Precip ( " mm )
12:53 am 00:53 Clear 59 15 15 -9.4 18 18 S 10 17 29.92 1013 10 16 0.00 0.00
1:53 am 01:53 Clear 58 14.4 18 -7.8 21 21 SW 7 11 29.93 1014 10 16 0.00 0.00
2:53 am 02:53 Clear 53 11.7 20 -6.7 27 27 WSW 7 11 29.92 1013 10 16 0.00 0.00
3:53 am 03:53 Clear 50 10 20 -6.7 30 30 W 7 11 29.91 1013 10 16 0.00 0.00
4:53 am 04:53 Clear 46 7.8 22 -5.6 38 38 WNW 3 6 29.89 1012 10 16 0.00 0.00
5:53 am 05:53 Clear 41 5 25 -3.9 53 53 Calm 29.88 1012 10 16 0.00 0.00
6:53 am 06:53 Clear 36 2.2 24 -4.4 62 62 NW 3 6 29.88 1012 10 16 0.00 0.00
7:53 am 07:53 Sunny 35 1.7 24 -4.4 64 64 NW 3 6 29.90 1013 10 16 0.00 0.00
8:53 am 08:53 Sunny 41 5 30 -1.1 65 65 Calm 29.91 1013 10 16 0.00 0.00
9:53 am 09:53 Sunny 51 10.6 25 -3.9 36 36 W 3 6 29.88 1012 10 16 0.00 0.00
10:53 am 10:53 Sunny 61 16.1 24 -4.4 24 24 W 7 11 29.87 1011 10 16 0.00 0.00
11:53 am 11:53 Sunny 69 20.6 23 -5 17 17 WNW 9 15 29.85 1011 10 16 0.00 0.00
12:53 pm 12:53 Sunny 76 24.4 24 -4.4 14 14 WNW 8 13 29.81 1010 10 16 0.00 0.00
1:53 pm 13:53 Sunny 85 29.4 26 -3.3 12 12 VRB 6 9 29.77 1008 10 16 0.00 0.00
2:53 pm 14:53 Sunny 91 32.8 26 -3.3 9 9 NW 18 30 29.75 1008 10 16 0.00 0.00
3:53 pm 15:53 Sunny 88 31.1 26 -3.3 10 10 N 22 35 29.78 1009 10 16 0.00 0.00
4:53 pm 16:53 Sunny 81 27.2 34 1.1 18 18 N 31 50 29.84 1011 10 16 0.00 0.00
5:53 pm 17:53 Sunny 73 22.8 35 1.7 25 25 NNE 31 50 29.93 1014 10 16 0.00 0.00
6:53 pm 18:53 Sunny 68 20 36 2.2 31 31 NNE 31 50 30.01 1016 10 16 0.00 0.00
7:53 pm 19:53 Clear 60 15.6 34 1.1 38 38 NNE 30 48 30.11 1020 10 16 0.00 0.00
8:53 pm 20:53 Clear 54 12.2 34 1.1 47 47 NNE 26 43 30.19 1022 10 16 0.00 0.00
9:53 pm 21:53 Clear 48 8.9 32 0 54 54 N 24 39 30.24 1024 10 16 0.00 0.00
10:53 pm 22:53 Clear 43 6.1 32 0 65 65 NNE 20 31 30.28 1025 10 16 0.00 0.00
11:53 pm 23:53 Clear 40 4.4 31 -0.6 70 70 NNE 20 31 30.30 1026 10 16 0.00 0.00

Powered by AerisWeather